Hoonah, AK

5:47 AM AKDT on September 22, 2017 (GMT -0800)
Hoonah

Weather History for PAOH - March, 2013

Change the Weather History Date:

Saturday, March 9, 2013

  Actual Average Record
Temperature  
Mean Temperature 34 °F -  
Max Temperature 37 °F 33 °F 45 °F (2005)
Min Temperature 32 °F 25 °F 8 °F (2002)
Degree Days  
Heating Degree Days 30    
Moisture  
Dew Point 35 °F    
Average Humidity 100    
Maximum Humidity 100    
Minimum Humidity 93    
Precipitation  
Precipitation 0.10 in - - ()
Sea Level Pressure  
Sea Level Pressure 30.04 in    
Wind  
Wind Speed 7 mph (ENE)    
Max Wind Speed 12 mph    
Max Gust Speed -    
Visibility 8 miles    
Events Rain , Snow    
Averages and records for this station are not official NWS values.
T = Trace of Precipitation, MM = Missing Value Source: NWS Daily Summary

Daily Weather History Graph

Daily Weather History Graph

Search for Another Location

Airport or City:

Trip Planner

Search our weather history database for the weather conditions in past years. The results will help you decide how hot, cold, wet, or windy it might be!

Date:

Astronomy

Mar. 09, 2013 Rise Set
Actual Time 6:33 AM AKST 5:51 PM AKST
Civil Twilight 5:54 AM AKST 6:31 PM AKST
Nautical Twilight 5:08 AM AKST 7:17 PM AKST
Astronomical Twilight 4:21 AM AKST 8:04 PM AKST
Moon 5:22 AM AKST (3/9) 3:47 PM AKST (3/9)
Length of Visible Light 12h 37m
Length of Day
11h 18m
Waning Crescent, 5% of the Moon is Illuminated
Mar 9
Waning Crescent
Mar 11
New
Mar 19
First Quarter
Mar 27
Full
Apr 2
Last Quarter

Hourly Weather History & Observations

Time (AKST) Temp. Windchill Dew Point Humidity Pressure Visibility Wind Dir Wind Speed Gust Speed Precip Events Conditions
12:10 AM 35.6 °F 28.0 °F 35.6 °F 100% 30.11 in 10.0 mi East 10.4 mph - N/A   Overcast
12:56 AM 36.0 °F 29.0 °F 36.0 °F 100% 30.11 in 9.0 mi East 9.2 mph - 0.00 in   Overcast
1:56 AM 36.0 °F 29.0 °F 36.0 °F 100% 30.11 in 8.0 mi East 9.2 mph - 0.01 in   Overcast
2:56 AM 35.6 °F 29.2 °F 35.6 °F 100% 30.09 in 7.0 mi ENE 8.1 mph - N/A   Overcast
3:56 AM 34.9 °F 28.3 °F 34.9 °F 100% 30.09 in 6.0 mi East 8.1 mph - 0.01 in   Overcast
4:56 AM 34.9 °F 27.7 °F 34.9 °F 100% 30.08 in 7.0 mi ENE 9.2 mph - 0.01 in   Overcast
5:56 AM 35.6 °F 29.9 °F 35.6 °F 100% 30.07 in 10.0 mi Variable 6.9 mph - N/A   Mostly Cloudy
6:56 AM 36.0 °F 29.0 °F 36.0 °F 100% 30.06 in 8.0 mi East 9.2 mph - 0.00 in   Overcast
7:56 AM 34.9 °F 28.3 °F 34.9 °F 100% 30.05 in 7.0 mi East 8.1 mph - 0.01 in   Overcast
8:56 AM 36.0 °F 28.0 °F 36.0 °F 100% 30.04 in 8.0 mi East 11.5 mph - 0.00 in   Overcast
9:56 AM 36.0 °F 29.6 °F 36.0 °F 100% 30.04 in 6.0 mi East 8.1 mph - 0.00 in   Overcast
10:56 AM 36.0 °F 29.0 °F 36.0 °F 100% 30.03 in 8.0 mi East 9.2 mph - 0.01 in   Overcast
11:56 AM 37.4 °F 32.1 °F 37.4 °F 100% 30.01 in 6.0 mi ENE 6.9 mph - N/A   Overcast
12:35 PM 35.6 °F 30.7 °F 35.6 °F 100% 30.00 in 6.0 mi East 5.8 mph - 0.00 in   Overcast
12:56 PM 36.0 °F 30.3 °F 36.0 °F 100% 30.00 in 5.0 mi East 6.9 mph - 0.01 in   Overcast
1:56 PM 36.0 °F 30.3 °F 36.0 °F 100% 29.99 in 7.0 mi East 6.9 mph - 0.01 in   Overcast
2:56 PM 35.6 °F 30.7 °F 35.6 °F 100% 29.97 in 7.0 mi East 5.8 mph - N/A   Overcast
3:56 PM 36.0 °F 31.1 °F 36.0 °F 100% 29.98 in 7.0 mi East 5.8 mph - 0.01 in   Overcast
4:25 PM 35.6 °F - 35.6 °F 100% 29.97 in 10.0 mi Calm Calm - 0.01 in   Overcast
4:38 PM 35.6 °F - 35.6 °F 100% 29.97 in 8.0 mi Calm Calm - 0.01 in Rain Light Rain
4:56 PM 34.9 °F - 34.9 °F 100% 29.99 in 8.0 mi Calm Calm - 0.02 in Rain Light Rain
5:56 PM 33.8 °F - 33.8 °F 100% 29.99 in 4.0 mi Calm Calm - N/A Snow Light Snow
6:08 PM 33.8 °F - 33.8 °F 100% 29.99 in 7.0 mi Calm Calm - 0.00 in   Mostly Cloudy
6:20 PM 33.8 °F - 33.8 °F 100% 30.00 in 10.0 mi Calm Calm - 0.00 in   Scattered Clouds
6:56 PM 34.0 °F - 34.0 °F 100% 30.01 in 5.0 mi Calm Calm - 0.00 in   Mostly Cloudy
7:56 PM 32.9 °F - 32.9 °F 100% 30.03 in 8.0 mi Calm Calm - 0.00 in   Mostly Cloudy
8:03 PM 33.8 °F - 33.8 °F 100% 30.03 in 9.0 mi Calm Calm - N/A   Scattered Clouds
8:36 PM 33.8 °F - 33.8 °F 100% 30.05 in 10.0 mi Calm Calm - N/A   Overcast
8:56 PM 33.8 °F - 33.8 °F 100% 30.06 in 10.0 mi Calm Calm - N/A   Overcast
9:18 PM 35.6 °F 31.7 °F 35.6 °F 100% 30.08 in 10.0 mi WNW 4.6 mph - N/A   Overcast
9:56 PM 34.9 °F 30.8 °F 34.9 °F 100% 30.10 in 10.0 mi NNW 4.6 mph - N/A   Mostly Cloudy
10:56 PM 36.0 °F 31.1 °F 36.0 °F 100% 30.13 in 10.0 mi Variable 5.8 mph - N/A   Partly Cloudy
11:56 PM 36.0 °F 30.3 °F 34.0 °F 93% 30.16 in 10.0 mi Variable 6.9 mph - N/A   Clear